| time (UTC) | temp C | wind direction | speed KPH | gust KPH | rain 1hr cm | rain 24hr cm | rain mn cm | humidity % | barometer mb |
| 20260502164036 | 7 | 312 | 9.7 | 19.3 | 0.00 | 0.38 | 0.38 | 99 | 1011.4 |
| 20260502163536 | 7 | 300 | 9.7 | 19.3 | 0.00 | 0.38 | 0.38 | 99 | 1011.4 |
| 20260502163036 | 7 | 327 | 9.7 | 22.5 | 0.00 | 0.38 | 0.38 | 99 | 1011.4 |
| 20260502162535 | 7 | 46 | 8.0 | 17.7 | 0.00 | 0.38 | 0.38 | 99 | 1011.4 |
| 20260502162031 | 7 | 360 | 11.3 | 17.7 | 0.00 | 0.38 | 0.38 | 99 | 1011.4 |
| 20260502161532 | 8 | 25 | 9.7 | 20.9 | 0.00 | 0.38 | 0.38 | 99 | 1011.4 |
| 20260502161033 | 7 | 18 | 4.8 | 24.1 | 0.00 | 0.38 | 0.38 | 99 | 1011.4 |
| 20260502160539 | 7 | 5 | 14.5 | 27.4 | 0.00 | 0.38 | 0.38 | 99 | 1011.4 |
| 20260502151529 | 7 | 29 | 8.0 | 20.9 | 0.00 | 0.38 | 0.38 | 100 | 1011.6 |
| 20260502151029 | 8 | 40 | 9.7 | 20.9 | 0.00 | 0.38 | 0.38 | 100 | 1011.5 |
| 20260502150530 | 8 | 300 | 9.7 | 22.5 | 0.00 | 0.38 | 0.38 | 100 | 1011.3 |
| 20260502123555 | 7 | 151 | 1.6 | 8.0 | 0.00 | 0.38 | 0.38 | 100 | 1011.4 |
| 20260502123034 | 7 | 152 | 1.6 | 6.4 | 0.00 | 0.38 | 0.38 | 100 | 1011.4 |
| 20260502122533 | 7 | 161 | 1.6 | 8.0 | 0.00 | 0.38 | 0.38 | 100 | 1011.5 |
| 20260502122033 | 7 | 67 | 3.2 | 8.0 | 0.00 | 0.38 | 0.38 | 100 | 1011.4 |
| 20260502121534 | 7 | 103 | 0.0 | 0.0 | 0.00 | 0.38 | 0.38 | 100 | 1011.4 |
| 20260502121032 | 7 | 103 | 0.0 | 0.0 | 0.00 | 0.38 | 0.38 | 100 | 1011.5 |
| 20260502120533 | 7 | 103 | 0.0 | 1.6 | 0.00 | 0.38 | 0.38 | 100 | 1011.5 |
| 20260502115556 | 6 | 103 | 0.0 | 0.0 | 0.00 | 0.38 | 0.38 | 100 | 1011.5 |
| 20260502115035 | 6 | 103 | 0.0 | 0.0 | 0.03 | 0.38 | 0.38 | 100 | 1011.4 |
| 20260502114537 | 6 | 103 | 0.0 | 0.0 | 0.03 | 0.38 | 0.38 | 100 | 1011.6 |
| 20260502114041 | 6 | 103 | 0.0 | 0.0 | 0.05 | 0.38 | 0.38 | 100 | 1011.6 |
| 20260502113542 | 6 | 103 | 0.0 | 0.0 | 0.05 | 0.38 | 0.38 | 100 | 1011.6 |
| 20260502113041 | 6 | 103 | 0.0 | 3.2 | 0.08 | 0.38 | 0.38 | 100 | 1011.6 |
| 20260502112541 | 6 | 103 | 1.6 | 3.2 | 0.10 | 0.38 | 0.38 | 100 | 1011.6 |
| 20260502112042 | 6 | 103 | 1.6 | 3.2 | 0.13 | 0.38 | 0.38 | 100 | 1011.4 |
| 20260502111543 | 6 | 103 | 0.0 | 3.2 | 0.18 | 0.38 | 0.38 | 100 | 1011.4 |
| 20260502111044 | 6 | 103 | 0.0 | 1.6 | 0.18 | 0.38 | 0.38 | 100 | 1011.4 |
| 20260502110525 | 6 | 103 | 0.0 | 4.8 | 0.20 | 0.38 | 0.38 | 100 | 1011.3 |
| 20260502110025 | 6 | 103 | 0.0 | 4.8 | 0.20 | 0.38 | 0.38 | 100 | 1011.3 |
| 20260502105527 | 6 | 103 | 1.6 | 4.8 | 0.20 | 0.38 | 0.38 | 100 | 1011.2 |
| 20260502105027 | 6 | 103 | 0.0 | 4.8 | 0.18 | 0.36 | 0.36 | 100 | 1011.3 |
| 20260502104527 | 6 | 103 | 1.6 | 4.8 | 0.18 | 0.36 | 0.36 | 100 | 1011.5 |
| 20260502104032 | 6 | 11 | 0.0 | 0.0 | 0.15 | 0.33 | 0.33 | 100 | 1011.7 |
| 20260502103534 | 6 | 11 | 0.0 | 0.0 | 0.15 | 0.30 | 0.30 | 100 | 1011.7 |
| 20260502103033 | 6 | 11 | 0.0 | 0.0 | 0.20 | 0.30 | 0.30 | 100 | 1011.5 |
| 20260502102534 | 6 | 11 | 0.0 | 0.0 | 0.18 | 0.28 | 0.28 | 100 | 1011.5 |
| 20260502102034 | 6 | 11 | 0.0 | 0.0 | 0.18 | 0.25 | 0.25 | 100 | 1011.4 |
| 20260502101535 | 6 | 11 | 0.0 | 3.2 | 0.13 | 0.20 | 0.20 | 100 | 1011.4 |
| 20260502101036 | 6 | 11 | 1.6 | 3.2 | 0.10 | 0.18 | 0.18 | 100 | 1011.2 |
| 20260502100538 | 6 | 11 | 0.0 | 0.0 | 0.10 | 0.18 | 0.18 | 100 | 1011.0 |
| 20260502091037 | 6 | 11 | 0.0 | 4.8 | 0.00 | 0.08 | 0.08 | 100 | 1010.8 |
| 20260502090539 | 6 | 11 | 1.6 | 4.8 | 0.00 | 0.08 | 0.08 | 100 | 1010.7 |
| 20260502071531 | 6 | 13 | 1.6 | 6.4 | 0.03 | 0.05 | 0.05 | 100 | 1011.3 |
| 20260502071027 | 6 | 5 | 0.0 | 3.2 | 0.03 | 0.03 | 0.03 | 100 | 1011.3 |
| 20260502070605 | 6 | 5 | 0.0 | 3.2 | 0.03 | 0.03 | 0.03 | 100 | 1011.2 |
| 20260502070040 | 6 | 5 | 1.6 | 3.2 | 0.03 | 0.03 | 0.03 | 100 | 1010.9 |
| 20260502065540 | 6 | 5 | 1.6 | 3.2 | 0.03 | 0.03 | 0.03 | 100 | 1010.9 |
| 20260502065026 | 6 | 5 | 3.2 | 3.2 | 0.03 | 0.03 | 0.03 | 100 | 1010.9 |
| 20260502064526 | 6 | 5 | 3.2 | 3.2 | 0.03 | 0.03 | 0.03 | 100 | 1011.0 |
| 20260502064028 | 7 | 5 | 0.0 | 3.2 | 0.03 | 0.03 | 0.03 | 100 | 1011.2 |
| 20260502063526 | 7 | 5 | 1.6 | 6.4 | 0.03 | 0.03 | 0.03 | 100 | 1011.2 |
| 20260502063026 | 7 | 5 | 3.2 | 6.4 | 0.03 | 0.03 | 0.03 | 100 | 1011.1 |
| 20260502062546 | 7 | 11 | 3.2 | 3.2 | 0.03 | 0.03 | 0.03 | 100 | 1011.2 |
| 20260502062026 | 7 | 11 | 1.6 | 3.2 | 0.03 | 0.03 | 0.03 | 100 | 1011.1 |
| 20260502061525 | 7 | 11 | 1.6 | 3.2 | 0.03 | 0.03 | 0.03 | 100 | 1011.2 |
| 20260502061046 | 7 | 11 | 1.6 | 4.8 | 0.00 | 0.00 | 0.00 | 100 | 1011.2 |
| 20260502060525 | 7 | 11 | 3.2 | 4.8 | 0.00 | 0.00 | 0.00 | 100 | 1011.4 |
| 20260502060026 | 7 | 11 | 0.0 | 4.8 | 0.00 | 0.00 | 0.00 | 100 | 1011.5 |
| 20260502055527 | 7 | 11 | 0.0 | 0.0 | 0.00 | 0.00 | 0.00 | 100 | 1011.4 |
| 20260502055027 | 7 | 11 | 0.0 | 0.0 | 0.00 | 0.00 | 0.00 | 100 | 1011.2 |
| 20260502054528 | 7 | 11 | 0.0 | 1.6 | 0.00 | 0.00 | 0.00 | 100 | 1011.1 |
| 20260502054028 | 7 | 11 | 0.0 | 1.6 | 0.00 | 0.00 | 0.00 | 100 | 1011.1 |
| 20260502053533 | 7 | 11 | 0.0 | 6.4 | 0.00 | 0.00 | 0.00 | 100 | 1011.1 |
| 20260502053033 | 7 | 11 | 3.2 | 6.4 | 0.00 | 0.00 | 0.00 | 100 | 1011.0 |
| 20260502052534 | 7 | 11 | 4.8 | 6.4 | 0.00 | 0.00 | 0.00 | 100 | 1010.9 |
| 20260502052033 | 7 | 11 | 3.2 | 4.8 | 0.00 | 0.00 | 0.00 | 100 | 1011.2 |
| 20260502051535 | 7 | 11 | 1.6 | 3.2 | 0.00 | 0.00 | 0.00 | 100 | 1011.1 |
| 20260502051035 | 7 | 11 | 1.6 | 3.2 | 0.00 | 0.00 | 0.00 | 100 | 1011.1 |
| 20260502050536 | 7 | 11 | 1.6 | 3.2 | 0.00 | 0.00 | 0.00 | 100 | 1011.2 |
| 20260502050035 | 7 | 11 | 1.6 | 3.2 | 0.00 | 0.00 | 0.00 | 100 | 1011.2 |
| 20260502045537 | 7 | 11 | 3.2 | 4.8 | 0.00 | 0.00 | 0.00 | 100 | 1011.4 |
| 20260502045036 | 7 | 11 | 3.2 | 4.8 | 0.00 | 0.00 | 0.00 | 100 | 1011.6 |
| 20260502044538 | 7 | 11 | 3.2 | 4.8 | 0.00 | 0.00 | 0.00 | 100 | 1011.7 |
| 20260502044058 | 7 | 11 | 1.6 | 3.2 | 0.00 | 0.00 | 0.00 | 99 | 1011.7 |
| 20260502043539 | 7 | 5 | 1.6 | 3.2 | 0.00 | 0.00 | 0.00 | 99 | 1011.7 |
| 20260502043039 | 7 | 5 | 1.6 | 3.2 | 0.00 | 0.00 | 0.00 | 99 | 1011.7 |
| 20260502042524 | 8 | 9 | 1.6 | 1.6 | 0.00 | 0.00 | 0.00 | 98 | 1011.6 |
| 20260502042105 | 8 | 9 | 0.0 | 1.6 | 0.00 | 0.00 | 0.00 | 97 | 1011.6 |
| 20260502041525 | 8 | 9 | 0.0 | 1.6 | 0.00 | 0.00 | 0.00 | 96 | 1011.5 |
| 20260502041025 | 8 | 9 | 0.0 | 3.2 | 0.00 | 0.00 | 0.00 | 95 | 1011.5 |
| 20260502040526 | 8 | 9 | 1.6 | 3.2 | 0.00 | 0.00 | 0.00 | 94 | 1011.4 |
| 20260502040027 | 8 | 9 | 1.6 | 3.2 | 0.00 | 0.00 | 0.00 | 94 | 1011.4 |
| 20260502035550 | 8 | 9 | 0.0 | 1.6 | 0.00 | 0.00 | 0.00 | 93 | 1011.4 |
| 20260502035031 | 8 | 9 | 0.0 | 1.6 | 0.00 | 0.00 | 0.00 | 92 | 1011.3 |
| 20260502034524 | 8 | 9 | 0.0 | 1.6 | 0.00 | 0.00 | 0.00 | 92 | 1011.2 |
| 20260502034025 | 9 | 9 | 0.0 | 3.2 | 0.00 | 0.00 | 0.00 | 91 | 1011.3 |
| 20260502033526 | 9 | 9 | 1.6 | 3.2 | 0.00 | 0.00 | 0.00 | 90 | 1011.4 |
| 20260502033027 | 9 | 9 | 0.0 | 3.2 | 0.00 | 0.00 | 0.00 | 89 | 1011.4 |
| 20260502032547 | 9 | 9 | 1.6 | 3.2 | 0.00 | 0.00 | 0.00 | 89 | 1011.4 |
| 20260502032028 | 9 | 9 | 1.6 | 3.2 | 0.00 | 0.00 | 0.00 | 88 | 1011.5 |
| 20260502031527 | 8 | 9 | 0.0 | 0.0 | 0.00 | 0.00 | 0.00 | 86 | 1011.5 |
| 20260502031028 | 8 | 9 | 0.0 | 1.6 | 0.00 | 0.00 | 0.00 | 84 | 1011.5 |
| 20260502030529 | 8 | 9 | 0.0 | 1.6 | 0.00 | 0.00 | 0.00 | 82 | 1011.6 |
| 20260502030029 | 8 | 9 | 0.0 | 1.6 | 0.00 | 0.00 | 0.00 | 81 | 1011.5 |
| 20260502025533 | 8 | 9 | 0.0 | 1.6 | 0.00 | 0.00 | 0.00 | 81 | 1011.5 |
| 20260502025032 | 8 | 9 | 0.0 | 1.6 | 0.00 | 0.00 | 0.00 | 80 | 1011.7 |
| 20260502024553 | 8 | 9 | 0.0 | 1.6 | 0.00 | 0.00 | 0.00 | 80 | 1011.7 |
| 20260502024032 | 8 | 9 | 0.0 | 1.6 | 0.00 | 0.00 | 0.00 | 79 | 1011.7 |
| 20260502023024 | 8 | 9 | 0.0 | 1.6 | 0.00 | 0.00 | 0.00 | 80 | 1011.6 |
| 20260502022544 | 8 | 9 | 1.6 | 3.2 | 0.00 | 0.00 | 0.00 | 80 | 1011.6 |
| 20260502022044 | 9 | 9 | 1.6 | 3.2 | 0.00 | 0.00 | 0.00 | 79 | 1011.7 |
| 20260502021526 | 9 | 9 | 0.0 | 3.2 | 0.00 | 0.00 | 0.00 | 79 | 1011.7 |
| 20260502021028 | 9 | 9 | 0.0 | 1.6 | 0.00 | 0.00 | 0.00 | 79 | 1011.7 |
| 20260502020549 | 9 | 9 | 0.0 | 1.6 | 0.00 | 0.00 | 0.00 | 80 | 1011.6 |
| 20260502020025 | 9 | 9 | 0.0 | 0.0 | 0.00 | 0.00 | 0.00 | 79 | 1011.6 |
| 20260502015526 | 9 | 9 | 0.0 | 1.6 | 0.00 | 0.00 | 0.00 | 78 | 1011.7 |
| 20260502015025 | 9 | 9 | 0.0 | 1.6 | 0.00 | 0.00 | 0.00 | 78 | 1011.7 |
| 20260502014037 | 10 | 5 | 0.0 | 3.2 | 0.00 | 0.00 | 0.00 | 79 | 1011.6 |
| 20260502013537 | 10 | 5 | 1.6 | 3.2 | 0.00 | 0.00 | 0.00 | 78 | 1011.6 |
| 20260502013037 | 10 | 5 | 0.0 | 3.2 | 0.00 | 0.00 | 0.00 | 77 | 1011.5 |
| 20260502012536 | 10 | 5 | 1.6 | 4.8 | 0.00 | 0.00 | 0.00 | 76 | 1011.4 |
| 20260502012041 | 10 | 5 | 0.0 | 4.8 | 0.00 | 0.00 | 0.00 | 77 | 1011.4 |
| 20260502011541 | 10 | 5 | 3.2 | 6.4 | 0.00 | 0.00 | 0.00 | 76 | 1011.3 |
| 20260502011041 | 10 | 5 | 3.2 | 8.0 | 0.00 | 0.00 | 0.00 | 77 | 1011.2 |
| 20260502010542 | 10 | 11 | 3.2 | 6.4 | 0.00 | 0.00 | 0.00 | 76 | 1011.2 |
| 20260502010103 | 10 | 5 | 1.6 | 6.4 | 0.00 | 0.00 | 0.00 | 75 | 1011.1 |
| 20260502005603 | 10 | 5 | 1.6 | 6.4 | 0.00 | 0.00 | 0.00 | 74 | 1011.0 |
| 20260502005043 | 10 | 5 | 3.2 | 6.4 | 0.00 | 0.00 | 0.00 | 75 | 1011.0 |
| 20260502004542 | 11 | 348 | 1.6 | 12.9 | 0.00 | 0.00 | 0.00 | 75 | 1011.0 |
| 20260502004042 | 11 | 355 | 3.2 | 12.9 | 0.00 | 0.00 | 0.00 | 74 | 1011.0 |
| 20260502003542 | 11 | 22 | 3.2 | 9.7 | 0.00 | 0.00 | 0.00 | 76 | 1010.9 |
| 20260502003042 | 11 | 71 | 0.0 | 4.8 | 0.00 | 0.00 | 0.00 | 77 | 1010.8 |
| 20260502002542 | 11 | 88 | 0.0 | 3.2 | 0.00 | 0.00 | 0.00 | 74 | 1010.8 |
| 20260502002043 | 11 | 88 | 1.6 | 3.2 | 0.00 | 0.00 | 0.00 | 75 | 1010.7 |
| 20260502001542 | 11 | 88 | 1.6 | 3.2 | 0.00 | 0.00 | 0.00 | 74 | 1010.6 |
| 20260502001027 | 11 | 88 | 1.6 | 3.2 | 0.00 | 0.00 | 0.00 | 74 | 1010.6 |
| 20260502000547 | 11 | 88 | 0.0 | 1.6 | 0.00 | 0.00 | 0.00 | 76 | 1010.5 |
| 20260502000028 | 11 | 88 | 0.0 | 6.4 | 0.00 | 0.00 | 0.00 | 73 | 1010.5 |
| 20260501235528 | 11 | 88 | 1.6 | 6.4 | 0.00 | 0.00 | 0.00 | 72 | 1010.4 |
| 20260501235028 | 11 | 140 | 0.0 | 0.0 | 0.00 | 0.00 | 0.00 | 73 | 1010.4 |
| 20260501234527 | 11 | 140 | 0.0 | 0.0 | 0.00 | 0.00 | 0.00 | 71 | 1010.4 |
| 20260501234028 | 11 | 140 | 0.0 | 0.0 | 0.00 | 0.00 | 0.00 | 72 | 1010.3 |
| 20260501233527 | 11 | 140 | 0.0 | 0.0 | 0.00 | 0.00 | 0.00 | 71 | 1010.2 |
| 20260501233029 | 11 | 140 | 0.0 | 0.0 | 0.00 | 0.00 | 0.00 | 74 | 1010.1 |
| 20260501232548 | 11 | 140 | 0.0 | 0.0 | 0.00 | 0.00 | 0.00 | 73 | 1010.1 |
| 20260501232048 | 11 | 140 | 0.0 | 1.6 | 0.00 | 0.00 | 0.00 | 72 | 1010.0 |
| 20260501231527 | 11 | 140 | 0.0 | 3.2 | 0.00 | 0.00 | 0.00 | 70 | 1010.0 |
| 20260501231027 | 12 | 140 | 0.0 | 3.2 | 0.00 | 0.00 | 0.00 | 73 | 1009.9 |
| 20260501230528 | 12 | 140 | 1.6 | 4.8 | 0.00 | 0.00 | 0.00 | 73 | 1009.8 |
| 20260501230030 | 12 | 147 | 1.6 | 8.0 | 0.00 | 0.00 | 0.00 | 77 | 1009.8 |
| 20260501225529 | 12 | 149 | 0.0 | 8.0 | 0.00 | 0.03 | 0.00 | 72 | 1009.8 |
| 20260501225105 | 12 | 131 | 1.6 | 4.8 | 0.00 | 0.03 | 0.00 | 69 | 1009.8 |
| 20260501224604 | 12 | 157 | 1.6 | 11.3 | 0.00 | 0.03 | 0.00 | 67 | 1009.7 |
| 20260501224026 | 12 | 159 | 4.8 | 11.3 | 0.00 | 0.03 | 0.00 | 66 | 1009.7 |
| 20260501223526 | 12 | 113 | 1.6 | 8.0 | 0.00 | 0.03 | 0.00 | 66 | 1009.7 |
| 20260501223027 | 12 | 67 | 3.2 | 8.0 | 0.00 | 0.03 | 0.00 | 67 | 1009.7 |
| 20260501222528 | 12 | 168 | 0.0 | 6.4 | 0.00 | 0.03 | 0.00 | 66 | 1009.7 |
| 20260501222029 | 12 | 169 | 1.6 | 6.4 | 0.00 | 0.03 | 0.00 | 63 | 1009.7 |
| 20260501221528 | 12 | 112 | 0.0 | 6.4 | 0.00 | 0.03 | 0.00 | 67 | 1009.7 |
| 20260501221050 | 12 | 110 | 0.0 | 3.2 | 0.00 | 0.03 | 0.00 | 67 | 1009.7 |
| 20260501220551 | 12 | 110 | 1.6 | 6.4 | 0.00 | 0.03 | 0.00 | 66 | 1009.7 |
| 20260501220029 | 13 | 110 | 3.2 | 12.9 | 0.00 | 0.03 | 0.00 | 62 | 1009.6 |
| 20260501215552 | 13 | 53 | 3.2 | 9.7 | 0.00 | 0.05 | 0.00 | 64 | 1009.7 |
| 20260501215030 | 13 | 94 | 3.2 | 9.7 | 0.00 | 0.05 | 0.00 | 62 | 1009.7 |
| 20260501214531 | 13 | 40 | 4.8 | 9.7 | 0.00 | 0.05 | 0.00 | 60 | 1009.6 |
| 20260501214051 | 13 | 37 | 4.8 | 9.7 | 0.00 | 0.05 | 0.00 | 58 | 1009.6 |
| 20260501213530 | 13 | 138 | 3.2 | 12.9 | 0.00 | 0.05 | 0.00 | 62 | 1009.6 |
| 20260501213051 | 13 | 9 | 3.2 | 11.3 | 0.00 | 0.05 | 0.00 | 60 | 1009.7 |
| 20260501212552 | 13 | 291 | 1.6 | 4.8 | 0.00 | 0.05 | 0.00 | 62 | 1009.6 |
| 20260501212031 | 13 | 34 | 1.6 | 8.0 | 0.00 | 0.05 | 0.00 | 61 | 1009.7 |
| 20260501211531 | 13 | 33 | 3.2 | 12.9 | 0.00 | 0.05 | 0.00 | 61 | 1009.6 |
| 20260501211031 | 14 | 17 | 3.2 | 19.3 | 0.00 | 0.05 | 0.00 | 59 | 1009.7 |
| 20260501210537 | 14 | 360 | 8.0 | 19.3 | 0.00 | 0.05 | 0.00 | 60 | 1009.7 |
| 20260501210056 | 13 | 79 | 3.2 | 8.0 | 0.00 | 0.05 | 0.00 | 59 | 1009.6 |
| 20260501205537 | 13 | 38 | 4.8 | 12.9 | 0.00 | 0.05 | 0.00 | 60 | 1009.7 |
| 20260501205036 | 13 | 20 | 4.8 | 12.9 | 0.00 | 0.05 | 0.00 | 59 | 1009.7 |
| 20260501204557 | 14 | 153 | 3.2 | 14.5 | 0.00 | 0.05 | 0.00 | 58 | 1009.7 |
| 20260501204036 | 14 | 107 | 6.4 | 14.5 | 0.00 | 0.05 | 0.00 | 61 | 1009.7 |
| 20260501203537 | 14 | 163 | 3.2 | 11.3 | 0.00 | 0.05 | 0.00 | 63 | 1009.7 |
| 20260501203038 | 14 | 123 | 4.8 | 11.3 | 0.00 | 0.05 | 0.00 | 66 | 1009.6 |
| 20260501202559 | 13 | 49 | 1.6 | 6.4 | 0.00 | 0.05 | 0.00 | 61 | 1009.6 |
| 20260501202038 | 13 | 49 | 3.2 | 16.1 | 0.00 | 0.05 | 0.00 | 60 | 1009.6 |
| 20260501201539 | 13 | 324 | 3.2 | 17.7 | 0.00 | 0.05 | 0.00 | 60 | 1009.8 |
| 20260501201039 | 14 | 38 | 4.8 | 17.7 | 0.00 | 0.05 | 0.00 | 58 | 1009.8 |
| 20260501200541 | 15 | 329 | 4.8 | 8.0 | 0.00 | 0.05 | 0.00 | 59 | 1009.7 |
| 20260501200041 | 15 | 126 | 3.2 | 9.7 | 0.00 | 0.05 | 0.00 | 60 | 1009.7 |
| 20260501195542 | 14 | 63 | 3.2 | 9.7 | 0.00 | 0.05 | 0.00 | 61 | 1009.7 |
| 20260501195026 | 13 | 66 | 3.2 | 6.4 | 0.00 | 0.05 | 0.00 | 61 | 1009.8 |
| 20260501194547 | 13 | 88 | 3.2 | 8.0 | 0.00 | 0.05 | 0.00 | 64 | 1009.8 |
| 20260501194026 | 13 | 86 | 3.2 | 9.7 | 0.00 | 0.05 | 0.00 | 61 | 1009.9 |
| 20260501193526 | 14 | 145 | 4.8 | 16.1 | 0.00 | 0.05 | 0.00 | 62 | 1009.9 |
| 20260501192559 | 15 | 108 | 6.4 | 12.9 | 0.00 | 0.05 | 0.00 | 60 | 1010.0 |
| 20260501192037 | 15 | 117 | 3.2 | 14.5 | 0.00 | 0.05 | 0.00 | 60 | 1009.9 |
| 20260501191538 | 15 | 331 | 4.8 | 24.1 | 0.00 | 0.05 | 0.00 | 61 | 1009.9 |
| 20260501191038 | 15 | 5 | 6.4 | 24.1 | 0.00 | 0.05 | 0.00 | 60 | 1009.9 |
| 20260501190559 | 14 | 332 | 9.7 | 19.3 | 0.00 | 0.05 | 0.00 | 64 | 1010.0 |
| 20260501190038 | 15 | 158 | 4.8 | 16.1 | 0.00 | 0.05 | 0.00 | 62 | 1010.2 |
| 20260501185539 | 14 | 355 | 6.4 | 17.7 | 0.00 | 0.05 | 0.00 | 65 | 1010.2 |
| 20260501185039 | 14 | 15 | 8.0 | 17.7 | 0.00 | 0.05 | 0.00 | 66 | 1010.3 |
| 20260501184539 | 13 | 53 | 3.2 | 9.7 | 0.00 | 0.05 | 0.00 | 68 | 1010.2 |
| 20260501184038 | 13 | 37 | 4.8 | 16.1 | 0.00 | 0.05 | 0.00 | 66 | 1010.5 |
| 20260501183539 | 14 | 17 | 3.2 | 16.1 | 0.00 | 0.05 | 0.00 | 68 | 1010.5 |
| 20260501183100 | 14 | 28 | 8.0 | 14.5 | 0.00 | 0.05 | 0.00 | 63 | 1010.5 |
| 20260501182600 | 13 | 95 | 6.4 | 12.9 | 0.00 | 0.05 | 0.00 | 67 | 1010.5 |
| 20260501182100 | 13 | 74 | 3.2 | 19.3 | 0.00 | 0.05 | 0.00 | 66 | 1010.5 |
| 20260501181600 | 13 | 219 | 6.4 | 22.5 | 0.00 | 0.05 | 0.00 | 69 | 1010.6 |
| 20260501181100 | 14 | 339 | 8.0 | 22.5 | 0.00 | 0.05 | 0.00 | 67 | 1010.6 |
| 20260501180539 | 14 | 70 | 3.2 | 24.1 | 0.00 | 0.05 | 0.00 | 66 | 1010.6 |
| 20260501180100 | 13 | 14 | 11.3 | 24.1 | 0.00 | 0.05 | 0.00 | 68 | 1010.5 |
| 20260501175539 | 13 | 45 | 9.7 | 24.1 | 0.00 | 0.05 | 0.00 | 67 | 1010.6 |
| 20260501175101 | 13 | 355 | 6.4 | 19.3 | 0.00 | 0.05 | 0.00 | 67 | 1010.7 |
| 20260501174539 | 13 | 161 | 6.4 | 19.3 | 0.00 | 0.05 | 0.00 | 63 | 1010.7 |
| 20260501174044 | 13 | 346 | 8.0 | 16.1 | 0.00 | 0.05 | 0.00 | 66 | 1010.6 |
| 20260501173542 | 13 | 360 | 4.8 | 24.1 | 0.00 | 0.05 | 0.00 | 69 | 1010.8 |
| 20260501173043 | 13 | 43 | 8.0 | 24.1 | 0.00 | 0.05 | 0.00 | 69 | 1010.8 |
| 20260501172543 | 13 | 360 | 6.4 | 19.3 | 0.00 | 0.05 | 0.00 | 70 | 1010.8 |
| 20260501172025 | 13 | 5 | 6.4 | 12.9 | 0.00 | 0.05 | 0.00 | 70 | 1010.8 |
| 20260501171525 | 13 | 313 | 6.4 | 12.9 | 0.00 | 0.05 | 0.00 | 70 | 1010.7 |